Flag for United Kingdom Weather past 2 weeks in Greenwich Borough, England, United Kingdom

54 °F

Partly sunny.

Feels Like: 50 °F
Forecast: N/A
Wind: 12 mph from Southwest

Location: Biggin Hill Airport

Current Time: Dec 1, 2015 at 3:44:55 PM

Latest Report: Dec 1, 2015 at 3:20 PM

Visibility: N/A

Pressure: 30.24 "Hg

Humidity: 67%

Dew point: 43 °F

Location of Greenwich BoroughLocation

Historic Weather in Greenwich Borough — Graph


Greenwich Borough temperature yesterday

Maximum temperature yesterday: 54 °F (at 6:50 AM)
Minimum temperature yesterday: 50 °F (at 7:20 AM)
Average temperature yesterday: 53 °F

Past Weeks' High & Low Weather Summary

High59 °F (Nov 17, 3:20 PM)94% (Nov 17, 1:20 PM)30.27 "Hg (Nov 17, 1:20 PM)
Low32 °F (Nov 21, 7:20 PM)57% (Nov 23, 11:20 AM)29.53 "Hg (Nov 17, 3:20 PM)
Average47 °F79%29.89 "Hg
* Reported Nov 16 2:20 PM — Dec 1 2:20 PM, Greenwich Borough, Weather by CustomWeather, © 2015

Note: Actual official high and low records may vary slightly from our data, if they occured in-between our weather recording intervals... More about our weather records


Greenwich Borough weather history for previous 24 hours

Time TempWeatherWind HumidityBarometerVisibility
2:20 PM
Tue, Dec 1
55 °FScattered clouds.10 mph67%30.21 "HgN/A
1:50 PM55 °FScattered clouds.14 mph67%30.21 "HgN/A
1:20 PM55 °FScattered clouds.16 mph72%30.21 "HgN/A
12:50 PM55 °FScattered clouds.15 mph72%30.21 "HgN/A
12:20 PM55 °FScattered clouds.14 mph72%30.24 "HgN/A
11:50 AM54 °FBroken clouds.15 mph77%30.24 "HgN/A
11:20 AM55 °FPartly sunny.16 mph72%30.24 "HgN/A
10:50 AM54 °FPartly sunny.14 mph82%30.24 "HgN/A
10:20 AM54 °FPartly sunny.15 mph77%30.24 "HgN/A
9:50 AM54 °FPartly sunny.12 mph82%30.24 "HgN/A
9:20 AM54 °FPartly sunny.13 mph82%30.21 "HgN/A
8:50 AM54 °FPartly sunny.14 mph82%30.21 "HgN/A
8:20 PM
Mon, Nov 30
54 °FPassing clouds.16 mph82%30.01 "HgN/A
7:50 PM54 °FPassing clouds.18 mph82%29.98 "HgN/A
7:20 PM54 °FPassing clouds.16 mph82%29.98 "HgN/A
6:50 PM54 °FPassing clouds.18 mph82%29.98 "HgN/A
6:20 PM54 °FPassing clouds.20 mph82%29.95 "HgN/A
5:50 PM54 °FLight rain. Passing clouds.21 mph82%29.95 "HgN/A
5:20 PM54 °FLight rain. Passing clouds.21 mph82%29.95 "HgN/A
4:50 PM54 °FPassing clouds.22 mph82%29.92 "HgN/A
4:20 PM54 °FPassing clouds.22 mph77%29.92 "HgN/A
3:50 PM54 °FPartly sunny.22 mph77%29.92 "HgN/A
3:20 PM54 °FPartly sunny.21 mph77%29.89 "HgN/A
Weather by CustomWeather, © 2015

See weather overviewHow to use our weather pages